Wind_Speed
38 37 37 38 40 39 40 41 41 40 41 42 43 43 43 43 44 44 44 44 44 42 42 41 40 40 39 37 36 35 33 32 30 29 27 25 24 24
37 37 38 40 40 40 40 41 41 42 42 42 42 42 43 43 44 44 44 45 45 44 43 42 40 39 38 36 35 33 32 30 29 27 26 25 24 23
40 41 41 41 40 40 41 41 41 41 41 41 42 43 44 44 44 44 45 45 44 43 42 40 39 38 36 35 34 32 31 29 27 26 25 24 23 22
41 42 42 42 41 41 41 41 41 40 41 42 43 43 44 44 44 44 44 44 43 42 40 39 38 37 35 34 33 32 30 28 27 26 25 24 23 23
41 42 42 41 41 42 41 41 41 41 41 42 43 44 44 45 45 44 44 43 41 40 38 37 37 36 35 33 32 31 29 28 27 26 26 25 24 23
42 42 42 42 42 41 41 41 41 42 43 43 43 43 44 44 43 43 42 40 39 37 37 36 36 35 34 33 32 30 29 27 27 27 26 25 24 24
42 42 42 42 41 41 42 42 42 42 43 43 42 42 42 41 41 40 39 38 37 37 36 36 35 35 34 33 31 29 28 27 27 26 25 25 24 24
42 42 42 42 42 42 42 42 42 42 42 41 41 41 40 40 39 38 38 37 36 36 36 35 35 34 33 32 30 29 28 27 27 26 26 26 25 25
43 43 42 42 42 41 41 41 41 41 40 40 39 39 38 38 37 36 36 35 35 35 35 34 33 32 31 30 30 29 28 27 28 27 26 26 26 26
41 41 41 41 40 40 39 40 39 39 39 39 38 38 37 37 36 36 36 35 35 35 34 33 32 31 31 30 29 29 28 28 28 27 27 27 27 27
40 40 40 40 39 39 39 39 39 39 38 38 37 37 37 37 36 36 35 35 35 34 33 32 31 31 31 30 29 29 29 28 28 28 28 27 27 27
40 40 40 39 39 39 38 38 38 37 37 37 37 37 37 36 36 35 35 34 33 33 32 32 31 31 30 29 29 29 28 28 28 28 28 28 28 28
39 39 39 39 39 38 37 37 37 37 36 36 37 37 36 36 36 35 34 33 33 32 32 31 31 30 30 29 29 29 28 28 29 29 29 28 28 29
39 39 38 38 38 37 37 37 37 36 36 36 37 36 36 35 34 34 33 32 32 31 31 31 30 30 30 29 29 29 29 29 29 29 29 29 29 29
39 38 38 37 37 37 37 37 37 37 37 36 36 36 35 35 34 33 32 32 31 31 31 30 30 30 29 29 29 29 29 29 29 30 30 30 30 30
38 38 37 37 37 37 37 37 37 37 36 36 35 35 34 33 33 33 32 32 31 31 31 30 30 30 30 30 29 29 29 30 30 30 30 31 31 31
38 37 37 37 37 37 37 37 36 36 35 35 34 34 33 33 33 33 32 32 31 31 31 30 30 30 31 31 30 30 30 30 31 31 31 32 32 32
38 37 37 37 37 37 37 36 36 35 35 34 34 34 33 33 33 33 32 32 31 31 31 31 30 31 31 31 31 31 31 31 32 32 32 33 33 33
38 38 38 38 37 37 37 36 36 35 35 35 34 34 33 33 33 32 32 32 31 31 31 31 31 32 32 32 32 32 32 32 32 32 33 33 34 34
39 38 38 37 37 37 36 36 36 35 35 35 34 34 34 33 32 32 32 32 32 32 32 32 32 33 33 33 33 33 33 33 33 33 34 34 35 35
39 38 38 38 37 37 36 36 35 35 35 34 34 34 33 33 33 33 33 33 33 33 33 33 33 34 34 35 34 35 35 35 35 35 35 35 35 36
38 38 37 37 37 36 35 35 35 35 35 34 34 34 34 34 34 34 34 34 34 35 35 35 35 35 35 35 36 36 36 36 36 36 36 37 37 37
38 37 37 37 36 36 36 36 36 35 35 35 35 35 35 35 35 35 35 36 36 36 36 36 36 36 36 36 36 37 37 37 37 37 38 38 38 38
Wind_Direction
271 272 273 276 279 280 280 283 285 286 287 289 290 290 290 291 292 292 293 293 293 291 291 291 291 291 290 290 288 287 286 285 284 280 276 272 271 271
271 272 274 278 281 281 281 284 285 285 286 287 288 288 290 291 291 292 291 292 291 291 290 290 290 290 289 288 286 286 284 282 282 277 274 269 268 267
271 273 276 280 281 281 282 284 285 286 287 288 288 288 289 290 290 291 291 291 290 290 289 289 289 289 288 286 285 284 283 281 278 275 271 267 265 265
272 274 277 278 279 281 282 283 284 285 286 287 288 288 289 289 290 290 290 290 290 289 288 287 287 287 286 285 283 282 280 277 275 272 268 266 264 263
273 274 275 276 278 280 281 282 283 285 286 288 288 289 288 289 289 289 288 288 288 288 287 286 286 285 285 284 282 280 276 274 273 269 266 266 262 261
273 274 275 276 277 278 280 281 282 285 286 288 288 289 288 288 288 288 287 287 287 286 285 285 285 284 283 281 280 277 275 271 270 267 265 264 260 260
272 272 274 275 277 278 280 281 283 285 286 287 288 288 287 287 287 287 287 286 285 284 284 284 284 283 281 280 278 275 272 269 267 265 264 263 260 259
271 272 274 274 277 278 280 282 284 285 286 287 287 287 287 287 287 287 286 286 285 284 284 283 283 281 280 278 276 272 269 265 266 266 265 262 261 259
270 272 274 275 276 278 281 282 284 285 286 286 286 286 287 287 287 286 286 285 285 284 283 281 280 279 278 276 273 270 266 264 265 264 263 260 260 260
270 271 273 275 277 280 281 282 284 285 285 285 286 286 287 287 286 286 285 285 284 283 282 280 278 277 277 275 272 269 266 264 264 263 261 260 261 261
269 271 273 275 277 279 280 282 283 284 284 284 285 286 286 286 285 285 285 284 283 282 281 279 276 275 275 274 271 269 267 265 263 262 261 260 261 261
270 272 274 275 277 279 280 281 282 283 282 282 283 284 285 285 285 284 284 283 282 281 280 277 276 275 274 272 271 269 267 265 262 261 261 261 261 262
269 271 273 275 276 278 279 279 280 281 281 281 282 283 284 284 283 282 282 281 281 280 278 277 275 274 272 271 270 268 266 265 263 262 261 261 262 263
268 270 272 274 275 276 277 278 278 280 281 281 282 282 282 282 282 281 280 280 279 278 277 276 275 273 272 270 269 267 266 265 264 262 261 262 263 264
267 269 271 273 274 274 275 277 278 279 280 281 281 280 280 280 281 281 280 279 278 276 275 274 274 273 272 271 269 267 266 265 264 264 263 263 264 265
266 268 269 271 272 274 275 276 278 279 279 280 279 279 279 279 279 279 279 278 277 275 274 274 273 273 271 270 269 268 267 265 265 264 264 264 265 266
265 267 268 270 272 273 274 275 276 277 278 278 278 278 278 277 278 277 277 276 275 275 274 273 273 272 270 270 269 269 267 266 265 265 265 266 266 266
265 266 268 270 272 273 273 274 275 275 276 276 277 278 278 277 276 276 275 275 275 274 273 272 272 271 270 270 269 269 268 267 267 266 267 267 267 267
265 267 268 270 271 272 272 273 273 273 274 275 276 277 277 277 276 275 274 275 275 274 273 272 271 270 270 271 270 269 269 268 268 267 267 268 268 269
265 267 267 269 270 271 271 272 272 273 274 274 275 275 275 275 275 274 274 274 275 274 274 273 272 271 270 270 271 270 269 268 268 268 268 269 269 270
264 265 266 267 269 270 270 270 271 272 272 273 274 274 274 274 274 273 274 274 274 274 274 273 273 272 271 270 270 270 270 269 269 269 269 269 269 270
262 263 265 266 267 268 269 270 270 271 271 272 273 273 273 273 273 273 274 274 274 274 273 273 273 273 272 271 270 270 270 270 270 270 269 270 270 270
261 262 264 265 266 267 268 269 269 270 271 272 272 272 272 273 273 274 274 274 274 274 274 274 274 273 272 271 272 271 271 271 271 270 270 271 271 271
Height
5764 5764 5764 5763 5763 5762 5761 5760 5759 5758 5756 5753 5750 5747 5744 5741 5738 5735 5732 5729 5726 5722 5719 5717 5714 5711 5709 5706 5704 5702 5700 5699 5698 5697 5696 5696 5696 5696
5754 5754 5754 5754 5753 5752 5751 5750 5748 5747 5745 5743 5740 5737 5734 5731 5728 5725 5722 5719 5716 5713 5710 5707 5704 5702 5699 5697 5695 5693 5692 5691 5690 5689 5689 5689 5689 5689
5744 5744 5744 5744 5743 5742 5741 5740 5738 5736 5735 5733 5730 5727 5724 5721 5718 5714 5711 5708 5705 5702 5700 5697 5694 5692 5690 5688 5687 5685 5684 5683 5682 5682 5682 5682 5682 5683
5733 5733 5733 5733 5733 5732 5730 5729 5727 5725 5724 5722 5719 5716 5713 5710 5707 5704 5701 5698 5695 5692 5689 5687 5685 5683 5681 5679 5678 5677 5676 5675 5675 5675 5675 5675 5676 5676
5722 5723 5722 5722 5721 5720 5719 5718 5716 5714 5712 5711 5708 5705 5702 5699 5696 5693 5690 5687 5685 5682 5680 5678 5676 5674 5672 5671 5669 5668 5668 5667 5667 5667 5668 5668 5668 5669
5711 5711 5711 5711 5710 5709 5708 5706 5705 5703 5701 5699 5697 5694 5691 5688 5685 5682 5680 5677 5675 5672 5670 5669 5667 5665 5663 5662 5661 5660 5660 5660 5660 5660 5660 5661 5661 5662
5700 5700 5700 5699 5698 5698 5697 5695 5694 5692 5690 5687 5685 5682 5680 5677 5674 5672 5669 5667 5665 5663 5661 5659 5657 5656 5654 5653 5652 5652 5652 5652 5652 5652 5653 5653 5654 5655
5688 5688 5688 5687 5687 5686 5685 5684 5682 5680 5678 5676 5673 5671 5669 5666 5664 5662 5659 5657 5655 5653 5651 5650 5648 5647 5645 5645 5644 5644 5644 5644 5644 5645 5645 5646 5647 5647
5677 5677 5676 5676 5675 5674 5673 5672 5670 5668 5667 5665 5663 5661 5658 5656 5654 5651 5649 5647 5645 5643 5642 5640 5639 5637 5637 5636 5635 5635 5635 5636 5636 5637 5637 5638 5639 5640
5665 5665 5665 5664 5664 5663 5662 5660 5659 5657 5656 5654 5653 5650 5648 5646 5643 5641 5639 5637 5635 5634 5632 5631 5630 5629 5628 5628 5627 5627 5627 5628 5628 5629 5629 5630 5631 5632
5653 5653 5653 5653 5652 5651 5650 5649 5648 5646 5645 5643 5642 5639 5637 5635 5633 5631 5629 5627 5626 5624 5623 5622 5621 5620 5620 5619 5619 5619 5619 5619 5620 5620 5621 5622 5623 5624
5641 5641 5641 5641 5641 5640 5639 5638 5637 5635 5634 5632 5631 5629 5627 5625 5623 5621 5619 5618 5616 5615 5614 5613 5612 5611 5611 5611 5610 5610 5611 5611 5611 5612 5613 5614 5614 5615
5630 5630 5630 5630 5629 5628 5627 5627 5626 5625 5623 5621 5620 5618 5617 5615 5613 5611 5609 5608 5607 5606 5605 5604 5603 5602 5602 5602 5602 5602 5602 5602 5603 5604 5604 5605 5606 5606
5618 5618 5618 5618 5617 5617 5616 5615 5614 5613 5612 5611 5609 5608 5606 5605 5603 5601 5600 5598 5597 5596 5595 5595 5594 5594 5594 5593 5593 5593 5594 5594 5594 5595 5596 5596 5597 5597
5606 5606 5606 5606 5606 5606 5605 5604 5603 5602 5601 5600 5599 5597 5596 5594 5593 5592 5590 5589 5588 5587 5586 5586 5585 5585 5585 5585 5584 5585 5585 5585 5585 5586 5586 5587 5587 5588
5594 5595 5595 5595 5595 5595 5594 5593 5592 5591 5590 5589 5588 5587 5585 5584 5583 5582 5581 5580 5579 5578 5577 5577 5576 5576 5576 5576 5576 5576 5576 5576 5576 5576 5577 5577 5578 5578
5583 5583 5584 5584 5584 5583 5583 5582 5581 5581 5580 5578 5577 5576 5575 5574 5573 5572 5571 5570 5570 5569 5568 5568 5567 5566 5566 5566 5566 5566 5566 5567 5567 5567 5567 5567 5568 5568
5571 5572 5572 5573 5572 5572 5572 5571 5570 5570 5569 5568 5567 5566 5565 5564 5563 5562 5562 5561 5560 5559 5559 5558 5558 5557 5557 5557 5557 5557 5557 5557 5557 5557 5557 5557 5557 5557
5560 5560 5561 5561 5561 5561 5560 5560 5559 5559 5558 5557 5557 5556 5555 5554 5553 5552 5552 5551 5550 5550 5549 5548 5548 5547 5547 5547 5547 5547 5547 5546 5546 5546 5546 5546 5546 5546
5548 5548 5549 5549 5549 5549 5549 5549 5548 5548 5547 5547 5546 5545 5545 5544 5543 5542 5542 5541 5540 5540 5539 5538 5538 5537 5537 5537 5537 5536 5536 5536 5536 5536 5536 5535 5535 5535
5536 5536 5537 5537 5538 5538 5538 5537 5537 5537 5536 5536 5535 5535 5534 5533 5533 5532 5531 5531 5530 5530 5529 5528 5527 5527 5526 5526 5526 5525 5525 5525 5525 5525 5524 5524 5524 5523
5524 5524 5525 5525 5526 5526 5526 5526 5526 5526 5525 5525 5524 5524 5523 5523 5522 5522 5521 5520 5519 5519 5518 5517 5517 5516 5515 5515 5514 5514 5513 5513 5513 5513 5512 5513 5512 5512
5512 5512 5513 5514 5514 5514 5515 5515 5515 5514 5514 5514 5513 5513 5512 5512 5511 5511 5510 5509 5508 5507 5506 5506 5505 5505 5504 5503 5503 5502 5501 5501 5501 5501 5500 5500 5500 5499